Regional Weather Roundup
Issued by NWS State College, PA

Home | Current Version | Previous Version | Text Only | Print | Product List | Glossary On
Versions: 1 2 3 4 5 6 7 8 9 10 11 12 13 14 15 16 17 18 19 20 21 22 23 24 25 26 27 28 29 30 31 32 33 34 35 36 37 38 39 40 41 42 43 44 45 46 47 48 49 50
000
ASUS41 KCTP 040603
RWRCTP

REGIONAL WEATHER ROUNDUP
NATIONAL WEATHER SERVICE STATE COLLEGE PA
200 AM EDT MON MAY 04 2015

Note: "fair" indicates few or no clouds below 12,000 feet with no
significant weather and/or obstructions to visibility.

* = STATION THAT DOES NOT REPORT PRECIPITATION /E.G. RAIN...SNOW...ETC/
    THUNDER OR FOG.

PAZ002>004-007>009-013>016-020>023-029>032-040700-
WESTERN PENNSYLVANIA

CITY           SKY/WX    TMP DP  RH WIND       PRES   REMARKS
ERIE           CLEAR     60  41  49 S7        30.08S
MEADVILLE      PTCLDY    62  40  44 S5        30.12S
FRANKLIN*      CLEAR     59  39  47 S6        30.15S
NEW CASTLE     FAIR      54  47  77 CALM      30.13S
BEAVER COUNTY  NOT AVBL
BUTLER*        CLEAR     54  41  62 CALM      30.16S
PITTSBURGH INT PTCLDY    56  44  64 CALM      30.13F
PITTSBURGH     CLEAR     58  43  57 S6        30.13F
INDIANA*       PTCLDY    52  45  76 CALM      30.19S
LATROBE        CLEAR     50  45  81 CALM      30.17S
WASHINGTON CO* CLEAR     45  39  81 CALM      30.16S
$$

PAZ004>006-010>012-017>019-024>028-033>037-041-042-045-046-049>053-040700-
CENTRAL PENNSYLVANIA

CITY           SKY/WX    TMP DP  RH WIND       PRES   REMARKS
BRADFORD       PTCLDY    49  37  63 SE3       30.16S
DUBOIS         CLEAR     59  39  47 CALM      30.15S
CLEARFIELD     CLEAR     52  39  61 CALM      30.17R
JOHNSTOWN      PTCLDY    60  36  40 S5        30.18S
ALTOONA        CLEAR     51  42  71 CALM      30.17S
STATE COLLEGE  CLEAR     56  40  55 S3        30.16R
WILLIAMSPORT   MOCLDY    54  42  64 CALM      30.14R
SELINSGROVE    CLEAR     49  45  86 CALM      30.15R
FT INDIANTOWN  CLEAR     51  44  75 NE1       30.15S
CAPITAL CITY   CLEAR     55  46  71 CALM      30.15S
HARRISBURG     PTCLDY    58  49  72 SE3       30.14S
YORK           PTCLDY    48  45  89 CALM      30.15S
$$

PAZ038>040-043-044-047-048-054-055-060>062-067>071-040700-
EASTERN PENNSYLVANIA

CITY           SKY/WX    TMP DP  RH WIND       PRES   REMARKS
SCRANTON       MOCLDY    60  35  39 E5        30.14S
MOUNT POCONO   CLEAR     48  36  63 W5        30.18S
ALLENTOWN      CLEAR     54  41  61 SE3       30.15S
QUAKERTOWN*    CLEAR     50  45  81 CALM      30.17S
READING        CLEAR     57  44  62 CALM      30.15S
LANCASTER      CLEAR     54  44  69 CALM      30.15S
COATESVILLE    CLEAR     55  46  71 CALM      30.18S
POTTSTOWN      CLEAR     56  45  66 CALM      30.17S
BLUE BELL      CLEAR     59  48  67 S3        30.16S
DOYLESTOWN     CLEAR     56  44  64 S3        30.16R
WILLOW GROVE   NOT AVBL
NORTH PHILA    CLEAR     59  41  51 CALM      30.18S
PHILADELPHIA   CLEAR     58  49  72 CALM      30.18R
$$



USA.gov is the U.S. government's official web portal to all federal, state and local government web resources and services.